Location: Carbonear
(47.7333°N, 53.2500°W)
Time: 16:07:12
(UTC+00:00)

CUTE-I - Pass Details

Date: 09 December 2022
Orbit: 809 x 824 km, 98.7° (Epoch: 05 February)

Event Time Altitude Azimuth Distance (km) Brightness Sun altitude
Rises 22:13:20 0° 207° (SSW) 3,327 ? -24.6°
Reaches altitude 10° 22:16:21 10° 225° (SW) 2,404 ? -25.1°
Maximum altitude 22:20:05 19° 270° (W) 1,856 ? -25.7°
Drops below altitude 10° 22:23:50 10° 315° (NW) 2,424 ? -26.3°
Sets 22:26:54 0° 333° (NNW) 3,365 ? -26.9°
